Weather History for Longview, TX

Change the Weather History Date:

Sunday, June 9, 2013

  Actual Average Record
Temperature  
Mean Temperature 79 °F 78 °F  
Max Temperature 88 °F 89 °F 106 °F (1911)
Min Temperature 69 °F 68 °F 56 °F (1996)
Degree Days  
Heating Degree Days 0 0  
Month to date heating degree days 0 0  
Since 1 June heating degree days 0 0  
Since 1 July heating degree days 2062 2258  
Cooling Degree Days 14 13  
Month to date cooling degree days 102 113  
Year to date cooling degree days 490 492  
Since 1 June cooling degree days 102 113  
Growing Degree Days 28 (Base 50)    
Moisture  
Dew Point 68 °F    
Average Humidity 73    
Maximum Humidity 93    
Minimum Humidity 53    
Precipitation  
Precipitation 0.04 in 0.16 in 1.08 in (1913)
Month to date precipitation 0.89 1.43  
Year to date precipitation 18.09 21.16  
Snow  
Snow 0.00 in - - ()
Month to date snowfall 0.0  
Since 1 June snowfall 0.0  
Since 1 July snowfall 0.8  
Snow Depth 0.00 in    
Sea Level Pressure  
Sea Level Pressure 29.90 in    
Wind  
Wind Speed 5 mph (South)    
Max Wind Speed 21 mph    
Max Gust Speed 30 mph    
Visibility 8 miles    
Events Rain , Thunderstorm    
T = Trace of Precipitation, MM = Missing Value Source: NWS Daily Summary

Daily Weather History Graph

Daily Weather History Graph

Search for Another Location

Airport:

Trip Planner

Search our weather history database for the weather conditions in past years. The results will help you decide how hot, cold, wet, or windy it might be!

Date:

Astronomy

Jun. 09, 2013 Rise Set
Actual Time 6:11 AM CDT 8:25 PM CDT
Civil Twilight 5:43 AM CDT 8:53 PM CDT
Nautical Twilight 5:08 AM CDT 9:28 PM CDT
Astronomical Twilight 4:31 AM CDT 10:05 PM CDT
Moon 7:05 AM CDT (6/9) 9:16 PM CDT (6/9)
Length of Visible Light 15h 10m
Length of Day
14h 13m
New Moon, 1% of the Moon is Illuminated
Jun 9
New Moon
Jun 16
First Quarter
Jun 23
Full
Jun 29
Last Quarter
Jul 8
New

Hourly Weather History & Observations

Time (CDT) Temp. Heat Index Dew Point Humidity Pressure Visibility Wind Dir Wind Speed Gust Speed Precip Events Conditions
12:53 AM 72.0 °F - 66.0 °F 81% 29.88 in 8.0 mi SSE 5.8 mph - N/A   Partly Cloudy
1:53 AM 71.1 °F - 66.0 °F 84% 29.88 in 9.0 mi Calm Calm - N/A   Partly Cloudy
2:53 AM 69.1 °F - 66.0 °F 90% 29.88 in 7.0 mi SE 4.6 mph - N/A   Clear
3:53 AM 71.1 °F - 66.9 °F 87% 29.88 in 8.0 mi SSE 5.8 mph - N/A   Clear
4:53 AM 70.0 °F - 66.9 °F 90% 29.88 in 8.0 mi SE 6.9 mph - N/A   Clear
5:53 AM 71.1 °F - 68.0 °F 90% 29.90 in 7.0 mi SSE 5.8 mph - N/A   Mostly Cloudy
6:53 AM 71.1 °F - 66.9 °F 87% 29.88 in 7.0 mi South 8.1 mph - 0.00 in   Partly Cloudy
7:53 AM 73.0 °F - 68.0 °F 84% 29.89 in 9.0 mi SSW 8.1 mph - N/A   Clear
8:53 AM 75.9 °F - 69.1 °F 79% 29.91 in 10.0 mi SSW 6.9 mph - N/A   Clear
9:53 AM 78.1 °F - 69.1 °F 74% 29.93 in 10.0 mi SW 8.1 mph - N/A   Overcast
10:53 AM 81.0 °F 84.4 °F 70.0 °F 69% 29.94 in 7.0 mi Variable 3.5 mph - N/A   Mostly Cloudy
11:08 AM 80.6 °F 83.9 °F 69.8 °F 70% 29.94 in 5.0 mi West 5.8 mph - N/A   Haze
11:16 AM 80.6 °F 83.9 °F 69.8 °F 70% 29.95 in 5.0 mi West 5.8 mph - N/A   Haze
11:24 AM 80.6 °F 83.9 °F 69.8 °F 70% 29.95 in 5.0 mi Variable 4.6 mph - N/A   Haze
11:44 AM 80.6 °F 83.9 °F 69.8 °F 70% 29.95 in 10.0 mi NW 8.1 mph - N/A Thunderstorm Overcast
11:53 AM 79.0 °F - 69.1 °F 72% 29.94 in 10.0 mi NNW 19.6 mph 29.9 mph N/A Thunderstorm Overcast
12:03 PM 71.6 °F - 64.4 °F 78% 29.96 in 3.0 mi NNW 15.0 mph 26.5 mph 0.03 in Rain , Thunderstorm Thunderstorms and Rain
12:11 PM 69.8 °F - 64.4 °F 83% 29.96 in 3.0 mi North 4.6 mph 19.6 mph 0.04 in Rain Light Rain
12:18 PM 69.8 °F - 66.2 °F 88% 29.95 in 10.0 mi Variable 3.5 mph - 0.04 in Rain , Thunderstorm Light Thunderstorms and Rain
12:40 PM 73.4 °F - 66.2 °F 78% 29.93 in 10.0 mi East 4.6 mph - 0.04 in   Partly Cloudy
12:53 PM 73.9 °F - 66.9 °F 79% 29.90 in 10.0 mi SE 3.5 mph - 0.04 in Rain Light Rain
1:53 PM 79.0 °F - 68.0 °F 69% 29.86 in 10.0 mi SE 8.1 mph - 0.00 in   Clear
2:53 PM 84.0 °F 87.0 °F 68.0 °F 58% 29.87 in 10.0 mi Variable 4.6 mph - N/A   Clear
3:53 PM 86.0 °F 90.7 °F 70.0 °F 59% 29.87 in 10.0 mi Calm Calm - N/A   Scattered Clouds
4:53 PM 87.1 °F 91.3 °F 69.1 °F 55% 29.86 in 10.0 mi Calm Calm - N/A   Mostly Cloudy
5:53 PM 87.1 °F 90.6 °F 68.0 °F 53% 29.86 in 10.0 mi Calm Calm - N/A   Partly Cloudy
6:53 PM 87.1 °F 91.3 °F 69.1 °F 55% 29.85 in 10.0 mi Calm Calm - N/A   Scattered Clouds
7:53 PM 84.9 °F 89.4 °F 70.0 °F 61% 29.85 in 10.0 mi Calm Calm - N/A   Clear
8:53 PM 78.1 °F - 71.1 °F 79% 29.86 in 10.0 mi Calm Calm - N/A   Clear
9:53 PM 75.0 °F - 71.1 °F 87% 29.89 in 10.0 mi Calm Calm - N/A   Clear
10:53 PM 73.9 °F - 71.1 °F 91% 29.92 in 10.0 mi SSE 3.5 mph - N/A   Clear
11:53 PM 73.0 °F - 70.0 °F 90% 29.93 in 10.0 mi South 4.6 mph - N/A   Clear